Location: Newark
(60.6561°N, 46.5772°E)
Time: 23:31:52
(UTC+00:00)

ISS - Visible Passes

Search period start: 23 September 2020 00:00
Search period end: 03 October 2020 00:00
Orbit: 419 x 420 km, 51.6° (Epoch: 24 September)

Date Brightness Start Highest point End Pass type
(mag) Time Alt. Az. Time Alt. Az. Time Alt. Az.
23 Sep -1.6 15:50:57 10° SSW 15:52:44 14° SSE 15:54:28 10° SE visible
23 Sep -1.5 17:26:17 10° SW 17:27:26 15° SSW 17:27:26 15° SSW visible
24 Sep -1.9 16:39:08 10° SW 16:41:30 18° S 16:41:52 18° SSE visible
25 Sep -1.8 15:52:02 10° SSW 15:54:19 17° S 15:56:15 12° SE visible
25 Sep -1.4 17:28:05 10° SW 17:29:13 15° SW 17:29:13 15° SW visible
26 Sep -1.9 16:40:46 10° SW 16:43:07 18° S 16:43:35 17° S visible
27 Sep -1.8 15:53:31 10° SW 15:55:54 18° S 15:57:55 12° SE visible
27 Sep -1.1 17:30:13 10° SW 17:30:53 12° SW 17:30:53 12° SW visible
28 Sep -1.6 16:42:39 10° SW 16:44:39 15° SSW 16:45:13 14° S visible
29 Sep -1.5 15:55:13 10° SW 15:57:26 17° S 15:59:34 10° SSE visible
30 Sep -1.6 15:07:51 10° SW 15:10:12 18° S 15:12:33 10° SE visible
30 Sep -1.1 16:45:15 10° SW 16:46:05 11° SSW 16:46:53 10° SSW visible
01 Oct -1.2 15:57:16 10° SW 15:58:53 13° SSW 16:00:30 10° S visible
02 Oct -1.2 15:09:39 10° SW 15:11:39 15° SSW 15:13:40 10° SSE visible
